Location: Baia Mare
(47.6567°N, 23.5850°E)
Time: 12:07:24
(UTC+03:00)

ISS - Pass Details

Date: 26 May 2018
Orbit: 402 x 407 km, 51.6° (Epoch: 24 May)

Event Time Altitude Azimuth Distance (km) Brightness Sun altitude
Rises 00:37:46 0° 289° (WNW) 2,321 0.4 -20.5°
Reaches altitude 10° 00:39:54 10° 296° (WNW) 1,460 -0.6 -20.6°
Maximum altitude 00:43:04 45° 11° (N) 561 -2.8 -20.7°
Enters shadow 00:44:37 25° 71° (ENE) 870 -2.1 -20.7°
